Lumberton, NC

10:20 PM EDT on August 29, 2016 (GMT -0400)
Lumberton Municipal

Weather History for KLBT - February, 2015

Change the Weather History Date:

Wednesday, February 18, 2015

  Actual Average Record
Temperature  
Mean Temperature 38 °F 47 °F  
Max Temperature 48 °F 59 °F 77 °F (2011)
Min Temperature 28 °F 36 °F 21 °F (2013)
Degree Days  
Heating Degree Days 27 18  
Month to date heating degree days 407 348  
Since 1 July heating degree days 2117 2067  
Cooling Degree Days 0 0  
Month to date cooling degree days 0 0  
Year to date cooling degree days 0 1  
Moisture  
Dew Point 27 °F    
Average Humidity 68    
Maximum Humidity 100    
Minimum Humidity 36    
Precipitation  
Precipitation T in 0.12 in 2.28 in (2008)
Month to date precipitation 2.13 1.76  
Year to date precipitation 6.82 4.73  
Sea Level Pressure  
Sea Level Pressure 29.93 in    
Wind  
Wind Speed 8 mph (West)    
Max Wind Speed 26 mph    
Max Gust Speed 34 mph    
Visibility 5 miles    
Events Fog , Snow    
T = Trace of Precipitation, MM = Missing Value Source: NWS Daily Summary

Daily Weather History Graph

Daily Weather History Graph

Search for Another Location

Airport or City:

Trip Planner

Search our weather history database for the weather conditions in past years. The results will help you decide how hot, cold, wet, or windy it might be!

Date:

Astronomy

Feb. 18, 2015 Rise Set
Actual Time 6:58 AM EST 6:02 PM EST
Civil Twilight 6:33 AM EST 6:27 PM EST
Nautical Twilight 6:03 AM EST 6:57 PM EST
Astronomical Twilight 5:34 AM EST 7:26 PM EST
Moon 6:27 AM EST (2/18) 5:59 PM EST (2/18)
Length of Visible Light 11h 54m
Length of Day
11h 03m
Waning Crescent, 0% of the Moon is Illuminated
Feb 18
Waning Crescent
Feb 18
New
Feb 25
First Quarter
Mar 5
Full
Mar 13
Last Quarter

Hourly Weather History & Observations

Time (EST) Temp. Windchill Dew Point Humidity Pressure Visibility Wind Dir Wind Speed Gust Speed Precip Events Conditions
12:15 AM 30.0 °F 26.5 °F 27.0 °F 88% 29.94 in 2.5 mi NW 3.5 mph - N/A   Clear
12:22 AM 30.0 °F - 27.0 °F 88% 29.94 in 3.0 mi Calm Calm - N/A   Clear
12:54 AM 30.0 °F - 27.0 °F 88% 29.93 in 3.0 mi Calm Calm - N/A   Clear
1:40 AM 28.9 °F 23.9 °F 26.1 °F 89% 29.94 in 4.0 mi West 4.6 mph - N/A   Mostly Cloudy
1:54 AM 30.0 °F - 27.0 °F 88% 29.94 in 4.0 mi Calm Calm - N/A   Overcast
2:49 AM 30.2 °F - 28.4 °F 93% 29.95 in 4.0 mi Calm Calm - N/A   Scattered Clouds
2:54 AM 30.0 °F - 28.0 °F 92% 29.95 in 4.0 mi Calm Calm - N/A   Partly Cloudy
3:50 AM 30.2 °F - 26.6 °F 86% 29.93 in 3.0 mi Calm Calm - N/A   Mostly Cloudy
3:54 AM 30.0 °F - 28.0 °F 92% 29.94 in 3.0 mi Calm Calm - N/A   Mostly Cloudy
4:02 AM 30.0 °F - 27.0 °F 88% 29.93 in 4.0 mi Calm Calm - N/A   Overcast
4:54 AM 30.0 °F - 28.0 °F 92% 29.93 in 3.0 mi Calm Calm - N/A   Overcast
5:42 AM 30.0 °F - 28.0 °F 92% 29.94 in 3.0 mi Calm Calm - N/A   Overcast
5:54 AM 30.0 °F - 28.0 °F 92% 29.95 in 3.0 mi Calm Calm - N/A   Overcast
6:12 AM 30.9 °F 25.2 °F 28.0 °F 89% 29.96 in 2.5 mi NW 5.8 mph - N/A   Overcast
6:19 AM 30.9 °F 25.2 °F 28.0 °F 89% 29.96 in 1.5 mi NW 5.8 mph - N/A   Overcast
6:25 AM 30.0 °F 24.1 °F 28.0 °F 92% 29.97 in 0.8 mi WNW 5.8 mph - N/A   Overcast
6:54 AM 30.9 °F - 28.9 °F 92% 29.97 in 0.2 mi Calm Calm - N/A Fog Light Freezing Fog
7:54 AM 30.0 °F 26.5 °F 28.0 °F 92% 29.99 in 0.2 mi SW 3.5 mph - N/A Fog Light Freezing Fog
8:54 AM 30.0 °F - 28.9 °F 96% 29.99 in 0.2 mi Calm Calm - N/A Fog Light Freezing Fog
9:54 AM 30.0 °F 26.5 °F 30.0 °F 100% 29.97 in 0.2 mi Variable 3.5 mph - N/A Fog Light Freezing Fog
10:54 AM 30.9 °F 22.2 °F 30.0 °F 96% 29.98 in 0.2 mi WSW 10.4 mph - N/A Fog Light Freezing Fog
11:19 AM 32.0 °F 24.2 °F 30.0 °F 92% 29.96 in 1.2 mi SW 9.2 mph - N/A   Overcast
11:27 AM 32.0 °F 26.4 °F 30.9 °F 96% 29.96 in 2.0 mi SSW 5.8 mph - N/A   Overcast
11:46 AM 33.1 °F 26.9 °F 30.9 °F 92% 29.95 in 3.0 mi SSW 6.9 mph - N/A   Overcast
11:54 AM 33.1 °F 26.1 °F 30.9 °F 92% 29.94 in 3.0 mi SW 8.1 mph - N/A   Overcast
12:23 PM 35.1 °F 28.6 °F 32.0 °F 89% 29.93 in 4.0 mi WSW 8.1 mph - N/A   Overcast
12:28 PM 34.0 °F 27.2 °F 30.9 °F 89% 29.92 in 4.0 mi West 8.1 mph - N/A   Overcast
12:54 PM 36.0 °F 29.0 °F 32.0 °F 86% 29.91 in 5.0 mi SW 9.2 mph - N/A   Overcast
1:54 PM 39.9 °F 33.9 °F 33.1 °F 77% 29.86 in 6.0 mi SW 9.2 mph - N/A   Haze
2:54 PM 44.1 °F 39.5 °F 34.0 °F 68% 29.81 in 10.0 mi West 8.1 mph - N/A   Overcast
3:54 PM 46.0 °F 41.0 °F 33.1 °F 61% 29.78 in 10.0 mi WSW 10.4 mph - N/A   Overcast
4:54 PM 46.9 °F - 25.0 °F 42% 29.79 in 10.0 mi West 19.6 mph 28.8 mph N/A   Partly Cloudy
5:54 PM 43.0 °F 34.8 °F 21.9 °F 43% 29.82 in 10.0 mi West 18.4 mph 26.5 mph N/A   Scattered Clouds
6:54 PM 39.9 °F 31.1 °F 19.9 °F 45% 29.87 in 10.0 mi West 17.3 mph 25.3 mph N/A   Clear
7:54 PM 37.9 °F 30.0 °F 21.9 °F 53% 29.91 in 10.0 mi WSW 12.7 mph - N/A   Mostly Cloudy
8:54 PM 37.9 °F 29.2 °F 21.0 °F 51% 29.93 in 10.0 mi West 15.0 mph - N/A   Overcast
9:11 PM 34.0 °F 24.2 °F 27.0 °F 75% 29.95 in 8.0 mi NNW 15.0 mph - 0.00 in Snow Light Snow
9:54 PM 35.1 °F 25.9 °F 21.9 °F 59% 29.97 in 10.0 mi WNW 13.8 mph 21.9 mph 0.00 in   Overcast
10:54 PM 32.0 °F 22.1 °F 8.1 °F 37% 30.01 in 10.0 mi NW 13.8 mph 25.3 mph N/A   Overcast
11:54 PM 30.0 °F 17.2 °F 5.0 °F 35% 30.03 in 10.0 mi NW 20.7 mph 28.8 mph N/A   Clear